Location: Baller�as
(41.9020°N, 0.1554°W)
Time: 12:10:10
(UTC+00:00)

Cosmos 2360 Rocket - Pass Details

Date: 10 August 2020
Orbit: 833 x 845 km, 71.0° (Epoch: 21 September)

Event Time Altitude Azimuth Distance (km) Brightness Sun altitude
Rises 23:24:52 0° 331° (NNW) 3,412 6.4 -32.1°
Reaches altitude 10° 23:27:23 10° 326° (NW) 2,472 5.4 -32.2°
Enters shadow 23:31:20 40° 296° (WNW) 1,230 3.2 -32.4°
